{"data":{"norad_id":48771,"epoch":"2026-05-24T18:41:19.068288Z","epoch_age_seconds":97625,"freshness":"FRESH","line1":"1 48771U 21045E   26144.77869292  .00000139  00000+0  33564-3 0  9992","line2":"2 48771  87.8999 263.8541 0001527  91.9588 268.1718 13.15546968241304","mean_motion":13.15546968,"eccentricity":0.0001527,"inclination_deg":87.8999,"raan_deg":263.8541,"arg_perigee_deg":91.9588,"mean_anomaly_deg":268.1718,"bstar":0.00033564,"rev_number":24130,"period_min":109.46017398293,"perigee_km":1200.6193913861,"apogee_km":1202.9342970741,"semimajor_km":7579.9138442301,"source":"CELESTRAK","updated_at":"2026-05-25T13:38:22.442001Z"}}